Location: Peach Mountain Observatory
(42.3967°N, 83.9367°W)
Time: 16:01:36
(UTC-05:00)

deb Explorer IX - Pass Details

Date: 30 January 2020
Orbit: 549 x 1099 km, 38.8° (Epoch: 25 February)

Event Time Altitude Azimuth Distance (km) Brightness Sun altitude
Rises 21:03:54 0° 249° (WSW) 3,511 ? -36.5°
Reaches altitude 10° 21:06:23 10° 245° (WSW) 2,647 ? -36.9°
Enters shadow 21:09:40 32° 232° (SW) 1,627 ? -37.5°
